FW3961 Weather Reports


Display with metric or nautical units.
time (UTC)temp
F
wind
direction
speed
MPH
gust
MPH
rain 1hr
in
rain 24hr
in
rain mn
in
humidity
%
barometer
mb
20260507065619 53 217 0.0 3.0 0.00 0.00 0.00 85 1022.3
20260507065113 53 355 1.0 3.0 0.00 0.00 0.00 85 1022.3
20260507064607 53 185 0.0 2.0 0.00 0.00 0.00 85 1022.3
20260507064102 53 187 0.0 1.0 0.00 0.00 0.00 85 1022.3
20260507063602 53 213 0.0 2.0 0.00 0.00 0.00 85 1022.3
20260507063059 53 203 0.0 2.0 0.00 0.00 0.00 85 1022.4
20260507062557 53 269 0.0 3.0 0.00 0.00 0.00 85 1022.4
20260507062056 53 348 0.0 3.0 0.00 0.00 0.00 85 1022.4
20260507061555 53 267 1.0 2.0 0.00 0.00 0.00 85 1022.4
20260507061052 53 259 1.0 3.0 0.00 0.00 0.00 85 1022.4
20260507060551 52 300 1.0 5.0 0.00 0.00 0.00 85 1022.5
20260507060050 52 270 1.0 5.0 0.00 0.00 0.00 85 1022.5
20260507055551 52 290 1.0 3.0 0.00 0.00 0.00 85 1022.5
20260507055049 52 217 1.0 4.0 0.00 0.00 0.00 84 1022.5
20260507054553 53 323 1.0 4.0 0.00 0.00 0.00 84 1022.4
20260507054049 53 293 1.0 3.0 0.00 0.00 0.00 84 1022.3
20260507053553 53 275 1.0 5.0 0.00 0.00 0.00 84 1022.4
20260507053549 53 261 1.0 5.0 0.00 0.00 0.00 84 1022.4
20260507052547 53 257 1.0 5.0 0.00 0.00 0.00 84 1022.4
20260507052047 53 33 1.0 5.0 0.00 0.00 0.00 84 1022.4
20260507051551 53 246 1.0 4.0 0.00 0.00 0.00 84 1022.4
20260507051546 53 319 1.0 4.0 0.00 0.00 0.00 84 1022.4
20260507050545 53 233 1.0 7.0 0.00 0.00 0.00 84 1022.4
20260507050049 53 293 1.0 4.0 0.00 0.00 0.00 83 1022.3
20260507050045 53 277 1.0 7.0 0.00 0.00 0.00 84 1022.2
20260507045045 53 99 1.0 3.0 0.00 0.00 0.00 83 1022.2
20260507044545 54 259 1.0 5.0 0.00 0.00 0.00 83 1022.2
20260507044044 54 209 1.0 5.0 0.00 0.00 0.00 83 1022.2
20260507043544 54 308 1.0 3.0 0.00 0.00 0.00 83 1022.1
20260507043040 54 252 0.0 3.0 0.00 0.00 0.00 83 1022.1
20260507042545 55 214 1.0 4.0 0.00 0.00 0.00 82 1022.1
20260507042540 54 207 0.0 3.0 0.00 0.00 0.00 83 1022.1
20260507041542 55 258 1.0 4.0 0.00 0.00 0.00 82 1022.1
20260507041041 55 306 1.0 3.0 0.00 0.00 0.00 81 1022.0
20260507040543 55 284 1.0 3.0 0.00 0.00 0.00 81 1021.9
20260507040041 56 199 1.0 6.0 0.00 0.00 0.00 81 1021.8
20260507035540 56 301 1.0 6.0 0.00 0.00 0.00 81 1021.8
20260507035040 56 258 1.0 5.0 0.00 0.00 0.00 81 1021.7
20260507034919 57 325 1.0 4.0 0.00 0.00 0.00 80 1021.6
20260507034811 56 248 1.0 5.0 0.00 0.00 0.00 80 1021.7
20260507034047 57 325 1.0 4.0 0.00 0.00 0.00 80 1021.6
20260507033543 57 315 1.0 2.0 0.00 0.00 0.00 80 1021.5
20260507033040 57 259 1.0 2.0 0.00 0.00 0.00 79 1021.5
20260507032545 58 220 1.0 4.0 0.00 0.00 0.00 78 1021.4
20260507032541 58 207 1.0 4.0 0.00 0.00 0.00 79 1021.4
20260507031539 58 275 1.0 5.0 0.00 0.00 0.00 78 1021.3
20260507031313 59 342 1.0 5.0 0.00 0.00 0.00 77 1021.3
20260507031048 59 342 1.0 5.0 0.00 0.00 0.00 77 1021.3
20260507031046 59 269 1.0 6.0 0.00 0.00 0.00 77 1021.3
20260507030038 60 180 1.0 4.0 0.00 0.00 0.00 76 1021.2
20260507030034 60 287 1.0 6.0 0.00 0.00 0.00 76 1021.2
20260507025034 60 209 2.0 5.0 0.00 0.00 0.00 75 1021.3
20260507024534 61 268 1.0 5.0 0.00 0.00 0.00 74 1021.2
20260507024034 61 301 1.0 4.0 0.00 0.00 0.00 75 1021.2
20260507023535 61 318 2.0 4.0 0.00 0.00 0.00 74 1021.2
20260507023028 62 323 1.0 4.0 0.00 0.00 0.00 73 1021.2
20260507022520 62 250 1.0 5.0 0.00 0.00 0.00 73 1021.1
20260507022014 63 321 2.0 5.0 0.00 0.00 0.00 73 1021.2
20260507021507 63 310 1.0 5.0 0.00 0.00 0.00 72 1021.2
20260507021003 63 206 1.0 5.0 0.00 0.00 0.00 72 1021.2
20260507020456 64 288 2.0 6.0 0.00 0.00 0.00 71 1021.2
20260507015949 64 301 2.0 6.0 0.00 0.00 0.00 71 1021.3
20260507015445 64 275 2.0 6.0 0.00 0.00 0.00 70 1021.3
20260507015440 65 290 2.0 7.0 0.00 0.00 0.00 70 1021.2
20260507014432 65 225 2.0 7.0 0.00 0.00 0.00 69 1021.3
20260507013928 65 302 2.0 7.0 0.00 0.00 0.00 70 1021.3
20260507013420 66 229 2.0 7.0 0.00 0.00 0.00 69 1021.2
20260507012914 66 190 2.0 9.0 0.00 0.00 0.00 68 1021.2
20260507012409 67 253 2.0 9.0 0.00 0.00 0.00 67 1021.1
20260507011902 67 28 2.0 6.0 0.00 0.00 0.00 67 1021.1
20260507011356 68 340 2.0 7.0 0.00 0.00 0.00 67 1021.0
20260507010849 68 229 2.0 7.0 0.00 0.00 0.00 66 1021.1
20260507010845 69 239 2.0 5.0 0.00 0.00 0.00 66 1021.2
20260507005838 69 291 2.0 5.0 0.00 0.00 0.00 65 1021.1
20260507005332 70 179 2.0 9.0 0.00 0.00 0.00 64 1021.1
20260507004828 70 223 2.0 9.0 0.00 0.00 0.00 64 1021.0
20260507004824 71 331 2.0 5.0 0.00 0.00 0.00 64 1021.0
20260507003813 71 298 2.0 6.0 0.00 0.00 0.00 63 1021.0
20260507003809 71 194 2.0 6.0 0.00 0.00 0.00 63 1021.0
20260507002802 71 305 2.0 5.0 0.00 0.00 0.00 64 1021.0
20260507002255 71 196 2.0 5.0 0.00 0.00 0.00 64 1021.0
20260507001750 72 306 2.0 5.0 0.00 0.00 0.00 64 1020.9
20260507001244 71 194 2.0 5.0 0.00 0.00 0.00 63 1020.8
20260507001105 71 275 2.0 5.0 0.00 0.00 0.00 64 1020.9
20260507001000 72 306 1.0 4.0 0.00 0.00 0.00 62 1020.9
20260507000607 72 232 1.0 5.0 0.00 0.00 0.00 64 1020.9
20260506235220 72 32 2.0 5.0 0.00 0.00 0.00 64 1020.8
20260506235216 71 188 1.0 5.0 0.00 0.00 0.00 62 1020.8
20260506234208 71 0 1.0 4.0 0.00 0.00 0.00 62 1020.8
20260506233701 71 200 1.0 3.0 0.00 0.00 0.00 62 1020.8
20260506233156 72 209 1.0 3.0 0.00 0.00 0.00 62 1020.8
20260506232650 72 243 1.0 3.0 0.00 0.00 0.00 61 1020.9
20260506232144 73 346 1.0 4.0 0.00 0.00 0.00 62 1020.9
20260506231638 73 313 1.0 4.0 0.00 0.00 0.00 64 1020.9
20260506231131 72 21 2.0 4.0 0.00 0.00 0.00 65 1020.9
20260506230626 72 134 2.0 4.0 0.00 0.00 0.00 63 1020.9
20260506230120 73 96 1.0 5.0 0.00 0.00 0.00 64 1020.9
20260506225614 73 148 1.0 5.0 0.00 0.00 0.00 63 1021.0
20260506225107 73 185 1.0 3.0 0.00 0.00 0.00 64 1021.1
20260506224603 73 200 1.0 3.0 0.00 0.00 0.00 64 1021.1
20260506224058 72 187 1.0 3.0 0.00 0.00 0.00 64 1021.2
20260506223550 73 187 1.0 3.0 0.00 0.00 0.00 62 1021.2
20260506223044 73 300 1.0 3.0 0.00 0.00 0.00 64 1021.3
20260506222537 72 227 1.0 4.0 0.00 0.00 0.00 63 1021.3
20260506222033 72 200 2.0 5.0 0.00 0.00 0.00 64 1021.3
20260506222028 72 144 1.0 5.0 0.00 0.00 0.00 64 1021.4
20260506221019 72 194 1.0 6.0 0.00 0.00 0.00 65 1021.4
20260506220520 71 126 1.0 6.0 0.00 0.00 0.00 67 1021.5
20260506220023 71 196 1.0 4.0 0.00 0.00 0.00 65 1021.5
20260506215519 71 236 1.0 4.0 0.00 0.00 0.00 65 1021.5
20260506215020 71 113 1.0 4.0 0.00 0.00 0.00 66 1021.3
20260506214520 71 134 2.0 3.0 0.00 0.00 0.00 67 1021.4
20260506214020 71 131 2.0 4.0 0.00 0.00 0.00 66 1021.4
20260506213524 70 248 1.0 4.0 0.00 0.00 0.00 68 1021.6
20260506213520 70 141 1.0 4.0 0.00 0.00 0.00 67 1021.5
20260506212519 69 171 1.0 4.0 0.00 0.00 0.00 69 1021.6
20260506212022 70 224 1.0 4.0 0.00 0.00 0.00 69 1021.7
20260506211516 69 158 1.0 3.0 0.00 0.00 0.00 71 1021.6
20260506211017 68 56 1.0 4.0 0.00 0.00 0.00 70 1021.7
20260506210518 68 5 2.0 4.0 0.00 0.00 0.00 70 1021.7
20260506210016 68 157 1.0 3.0 0.00 0.00 0.00 71 1021.8
20260506205516 68 211 1.0 3.0 0.00 0.00 0.00 71 1022.0
20260506205017 68 202 1.0 3.0 0.00 0.00 0.00 72 1021.9
20260506204515 68 212 1.0 3.0 0.00 0.00 0.00 72 1022.0
20260506204016 67 253 1.0 4.0 0.00 0.00 0.00 75 1022.0
20260506203516 67 134 2.0 4.0 0.00 0.00 0.00 74 1022.0
20260506203014 67 213 2.0 4.0 0.00 0.00 0.00 73 1022.0
20260506202513 67 252 2.0 4.0 0.00 0.00 0.00 76 1022.0
20260506202015 66 216 1.0 4.0 0.00 0.00 0.00 76 1022.0
20260506201514 65 172 2.0 7.0 0.00 0.00 0.00 77 1021.9
20260506201013 65 138 2.0 7.0 0.00 0.00 0.00 76 1022.0
20260506200514 65 121 1.0 4.0 0.00 0.00 0.00 76 1021.8
20260506200014 65 126 2.0 4.0 0.00 0.00 0.00 77 1022.0
20260506195515 65 130 2.0 4.0 0.00 0.00 0.00 76 1021.9
20260506195014 66 130 2.0 5.0 0.00 0.00 0.00 76 1021.9
20260506194511 65 130 2.0 7.0 0.00 0.00 0.00 75 1022.0
20260506194012 65 136 2.0 7.0 0.00 0.00 0.00 76 1022.0
20260506193850 64 127 1.0 7.0 0.00 0.00 0.00 79 1021.9
20260506193743 65 145 2.0 7.0 0.00 0.00 0.00 76 1022.0
20260506192510 63 118 1.0 5.0 0.00 0.00 0.00 81 1022.0
20260506192007 62 190 1.0 5.0 0.00 0.00 0.00 82 1021.9
20260506191508 61 164 1.0 5.0 0.00 0.00 0.00 81 1022.1
20260506191001 61 217 1.0 3.0 0.00 0.00 0.00 82 1022.1
20260506190456 61 242 1.0 3.0 0.00 0.00 0.00 82 1022.2
20260506190452 61 197 1.0 3.0 0.00 0.00 0.00 82 1022.1
20260506185442 61 200 1.0 3.0 0.00 0.00 0.00 83 1022.2
20260506184937 60 213 1.0 3.0 0.00 0.00 0.00 83 1022.1
20260506184431 60 231 1.0 3.0 0.00 0.00 0.00 83 1022.1
20260506183925 60 236 1.0 4.0 0.00 0.00 0.00 82 1022.1
20260506183418 60 172 1.0 4.0 0.00 0.00 0.00 83 1022.2
20260506182913 61 231 1.0 3.0 0.00 0.00 0.00 83 1022.1
20260506182407 60 175 1.0 2.0 0.00 0.00 0.00 84 1022.0
20260506182231 60 186 1.0 3.0 0.00 0.00 0.00 84 1022.0
20260506182128 59 202 1.0 4.0 0.00 0.00 0.00 85 1022.1
20260506180849 59 202 1.0 4.0 0.00 0.00 0.00 87 1022.1
20260506180845 58 226 1.0 4.0 0.00 0.00 0.00 87 1022.0
20260506175837 58 218 1.0 4.0 0.00 0.00 0.00 87 1022.1
20260506175331 57 223 1.0 4.0 0.00 0.00 0.00 87 1022.2
20260506174826 57 250 1.0 3.0 0.00 0.00 0.00 87 1022.3
20260506174822 57 213 1.0 3.0 0.00 0.00 0.00 87 1022.2
20260506173813 56 213 1.0 4.0 0.00 0.00 0.00 87 1022.2
20260506173306 56 203 1.0 4.0 0.00 0.00 0.00 88 1022.3
20260506172801 56 223 0.0 2.0 0.00 0.00 0.00 88 1022.3
20260506172254 56 219 0.0 2.0 0.00 0.00 0.00 89 1022.1
20260506172250 56 227 0.0 2.0 0.00 0.00 0.00 88 1021.8
20260506171242 56 229 0.0 2.0 0.00 0.00 0.00 88 1022.0
20260506170737 56 229 0.0 2.0 0.00 0.00 0.00 88 1022.0
20260506170231 56 229 0.0 2.0 0.00 0.00 0.00 88 1022.1
20260506165725 56 229 0.0 3.0 0.00 0.00 0.00 88 1022.0
20260506165219 56 273 0.0 3.0 0.00 0.00 0.00 88 1022.1
20260506164713 56 225 0.0 2.0 0.00 0.00 0.00 89 1022.0
20260506164207 55 225 1.0 2.0 0.00 0.00 0.00 88 1022.0
20260506163702 55 229 0.0 2.0 0.00 0.00 0.00 88 1022.0
20260506163658 55 223 0.0 2.0 0.00 0.00 0.00 89 1021.9
20260506162649 55 223 0.0 2.0 0.00 0.00 0.00 89 1021.9
20260506162143 55 223 1.0 5.0 0.00 0.00 0.00 89 1021.7
20260506161637 55 155 1.0 5.0 0.00 0.00 0.00 89 1021.5
20260506161132 55 155 1.0 5.0 0.00 0.00 0.00 89 1021.4
20260506160625 55 155 0.0 4.0 0.00 0.00 0.00 89 1021.5
20260506160620 55 232 0.0 2.0 0.00 0.00 0.00 89 1021.6
20260506155615 55 233 0.0 2.0 0.00 0.00 0.00 90 1021.8
20260506155106 54 267 0.0 2.0 0.00 0.00 0.00 90 1021.8
20260506154601 54 267 0.0 1.0 0.00 0.00 0.00 91 1021.9
20260506154056 54 267 0.0 1.0 0.00 0.00 0.00 91 1021.9
20260506153549 54 267 0.0 1.0 0.00 0.00 0.00 91 1022.0
20260506153043 53 284 0.0 2.0 0.00 0.00 0.00 91 1021.9
20260506152542 53 290 1.0 2.0 0.00 0.00 0.00 91 1022.1
20260506152538 53 284 1.0 2.0 0.00 0.00 0.00 91 1022.1
20260506151538 53 296 0.0 3.0 0.00 0.00 0.00 92 1022.1
20260506151043 53 302 1.0 3.0 0.00 0.00 0.00 92 1022.2
20260506150539 53 201 1.0 3.0 0.00 0.00 0.00 92 1022.0
20260506150420 53 217 1.0 3.0 0.00 0.00 0.00 92 1021.8
20260506150310 53 260 1.0 2.0 0.00 0.00 0.00 92 1022.0
20260506145039 53 217 1.0 3.0 0.00 0.00 0.00 93 1021.7
20260506144538 53 215 0.0 3.0 0.00 0.00 0.00 92 1021.6
20260506144041 53 238 0.0 2.0 0.00 0.00 0.00 93 1021.4
20260506143539 53 234 0.0 2.0 0.00 0.00 0.00 93 1021.1
20260506143039 53 158 1.0 2.0 0.00 0.00 0.00 93 1021.2
20260506142538 52 144 1.0 3.0 0.00 0.00 0.00 93 1021.0
20260506142042 52 144 0.0 3.0 0.00 0.00 0.00 93 1021.0
20260506141536 52 227 0.0 1.0 0.00 0.00 0.00 93 1021.1
20260506141035 52 227 0.0 1.0 0.00 0.00 0.00 93 1021.1
20260506140539 52 227 0.0 2.0 0.00 0.00 0.00 93 1021.1
20260506140535 52 227 0.0 2.0 0.00 0.00 0.00 93 1021.0
20260506135531 52 228 0.0 1.0 0.00 0.00 0.00 93 1021.0
20260506135031 52 228 0.0 1.0 0.00 0.00 0.00 93 1021.2
20260506134530 52 228 0.0 0.0 0.00 0.00 0.00 93 1021.2
20260506134030 52 228 0.0 1.0 0.00 0.00 0.00 93 1021.2
20260506133530 52 228 0.0 2.0 0.00 0.00 0.00 92 1021.1
20260506133031 52 228 1.0 2.0 0.00 0.00 0.00 92 1021.0
20260506132530 52 236 1.0 2.0 0.00 0.00 0.00 92 1021.1
20260506132031 52 236 1.0 2.0 0.00 0.00 0.00 92 1021.0
20260506131527 52 238 0.0 2.0 0.00 0.00 0.00 92 1021.0
20260506131027 53 238 0.0 0.0 0.00 0.00 0.00 92 1021.0
20260506130526 53 238 0.0 0.0 0.00 0.00 0.00 92 1020.9
20260506130027 52 238 0.0 1.0 0.00 0.00 0.00 93 1020.9
20260506125527 52 238 0.0 1.0 0.00 0.00 0.00 92 1020.9
20260506125026 52 238 0.0 0.0 0.00 0.00 0.00 93 1020.9
20260506124526 52 238 0.0 1.0 0.00 0.00 0.00 93 1020.9
20260506124027 52 238 0.0 1.0 0.00 0.00 0.00 92 1021.0
20260506123526 52 238 0.0 1.0 0.00 0.00 0.00 92 1021.0
20260506123019 52 238 0.0 1.0 0.00 0.00 0.00 92 1020.9
20260506122513 52 238 0.0 1.0 0.00 0.00 0.00 92 1020.9
20260506122018 52 238 0.0 2.0 0.00 0.00 0.00 92 1020.8
20260506122014 52 238 0.0 2.0 0.00 0.00 0.00 92 1020.8
20260506121015 52 236 0.0 3.0 0.00 0.00 0.00 92 1020.7
20260506121011 52 238 0.0 3.0 0.00 0.00 0.00 92 1020.8
20260506120851 52 237 0.0 2.0 0.00 0.00 0.00 92 1020.7
20260506115506 52 233 0.0 2.0 0.00 0.00 0.00 92 1020.7
20260506115012 52 240 0.0 2.0 0.00 0.00 0.00 92 1020.4
20260506115004 52 262 0.0 2.0 0.00 0.00 0.00 92 1020.6
20260506114005 52 246 0.0 2.0 0.00 0.00 0.00 92 1020.3
20260506113504 52 246 0.0 2.0 0.00 0.00 0.00 92 1020.2
20260506113001 52 244 0.0 2.0 0.00 0.00 0.00 92 1020.2
20260506112500 52 238 0.0 1.0 0.00 0.00 0.00 92 1020.1
20260506112000 52 238 0.0 2.0 0.00 0.00 0.00 92 1020.0
20260506111500 52 239 0.0 2.0 0.00 0.00 0.00 92 1020.1
20260506111004 52 238 0.0 2.0 0.00 0.00 0.00 91 1019.9
20260506111000 52 239 0.0 2.0 0.00 0.00 0.00 92 1020.0
20260506110000 52 235 0.0 0.0 0.00 0.00 0.00 91 1019.9
20260506105506 52 235 0.0 0.0 0.00 0.00 0.00 91 1019.7
20260506104957 52 235 0.0 0.0 0.00 0.00 0.00 91 1019.5
20260506104450 52 235 0.0 0.0 0.00 0.00 0.00 91 1019.4
20260506103943 52 235 0.0 0.0 0.00 0.00 0.00 91 1019.4
20260506103442 52 235 0.0 0.0 0.00 0.00 0.00 91 1019.2
20260506103438 52 235 0.0 0.0 0.00 0.00 0.00 91 1019.2
20260506102426 52 235 0.0 0.0 0.00 0.00 0.00 91 1019.2
20260506101923 52 235 0.0 0.0 0.00 0.00 0.00 90 1019.2
20260506101915 52 235 0.0 0.0 0.00 0.00 0.00 91 1019.1
20260506100908 53 235 0.0 0.0 0.00 0.00 0.00 91 1019.1
20260506100402 53 235 0.0 0.0 0.00 0.00 0.00 90 1019.1
20260506095856 53 235 0.0 0.0 0.00 0.00 0.00 90 1019.1
20260506095350 53 235 0.0 0.0 0.00 0.00 0.00 90 1019.0
20260506094843 53 235 0.0 0.0 0.00 0.00 0.00 90 1019.0
20260506094338 53 235 0.0 0.0 0.00 0.00 0.00 90 1019.1
20260506093837 53 235 0.0 0.0 0.00 0.00 0.00 90 1019.0
20260506093833 53 235 0.0 0.0 0.00 0.00 0.00 90 1019.0
20260506092821 53 235 0.0 0.0 0.00 0.00 0.00 90 1018.9
20260506092314 53 235 0.0 0.0 0.00 0.00 0.00 90 1019.0
20260506091808 54 235 0.0 0.0 0.00 0.00 0.00 90 1018.9
20260506091302 54 235 0.0 0.0 0.00 0.00 0.00 90 1018.8
20260506090756 54 235 0.0 0.0 0.00 0.00 0.00 89 1018.7
20260506090251 54 235 0.0 0.0 0.00 0.00 0.00 89 1018.8
20260506085744 54 235 0.0 0.0 0.00 0.00 0.00 89 1018.8
20260506085237 54 235 0.0 0.0 0.00 0.00 0.00 89 1018.8
20260506084732 54 235 0.0 1.0 0.00 0.00 0.00 89 1018.7
20260506084230 55 235 0.0 1.0 0.00 0.00 0.00 88 1018.7
20260506084226 54 235 0.0 1.0 0.00 0.00 0.00 88 1018.8
20260506083216 55 235 1.0 2.0 0.00 0.00 0.00 87 1018.7
20260506082712 56 235 0.0 1.0 0.00 0.00 0.00 85 1018.6
20260506082708 55 235 0.0 2.0 0.00 0.00 0.00 86 1018.6
20260506081657 57 235 0.0 0.0 0.00 0.00 0.00 84 1018.7
20260506081151 57 235 0.0 0.0 0.00 0.00 0.00 84 1018.7
20260506080645 57 235 0.0 0.0 0.00 0.00 0.00 84 1018.6
20260506080138 58 235 0.0 1.0 0.00 0.00 0.00 83 1018.6
20260506073118 58 303 0.0 1.0 0.00 0.00 0.00 82 1018.5
20260506072617 58 303 0.0 2.0 0.00 0.00 0.00 82 1018.6
20260506072118 59 303 1.0 2.0 0.00 0.00 0.00 82 1018.5
20260506071616 59 303 0.0 2.0 0.00 0.00 0.00 82 1018.4
20260506071114 59 305 1.0 2.0 0.00 0.00 0.00 82 1018.4
20260506070618 59 304 0.0 2.0 0.00 0.00 0.00 82 1018.4
20260506070614 59 305 1.0 2.0 0.00 0.00 0.00 82 1018.4